EW8310 Weather Reports


Display with metric or nautical units.
time (UTC)temp
F
wind
direction
speed
MPH
gust
MPH
rain 1hr
in
rain 24hr
in
rain mn
in
humidity
%
barometer
mb
20260902160408 88 147 0.0 0.0 0.00 0.00 0.00 48 1013.3
20260902155640 88 175 0.0 0.0 0.00 0.00 0.00 49 1013.3
20260902155139 87 148 0.0 0.0 0.00 0.00 0.00 50 1013.3
20260902154640 86 162 0.0 0.0 0.00 0.00 0.00 51 1013.3
20260902154626 86 145 0.0 2.0 0.00 0.00 0.00 51 1013.3
20260902153635 86 135 0.0 4.0 0.00 0.00 0.00 51 1013.3
20260902153139 86 193 2.0 4.0 0.00 0.00 0.00 53 1013.4
20260902152638 85 124 0.0 2.0 0.00 0.00 0.00 53 1013.4
20260902152405 84 324 0.0 0.0 0.00 0.00 0.00 54 1013.3
20260902151639 84 324 0.0 0.0 0.00 0.00 0.00 56 1013.3
20260902151139 83 326 0.0 0.0 0.00 0.00 0.00 56 1013.3
20260902150638 83 326 0.0 3.0 0.00 0.00 0.00 57 1013.3
20260902150139 83 329 0.0 3.0 0.00 0.00 0.00 58 1013.1
20260902145902 82 272 0.0 2.0 0.00 0.00 0.00 59 1013.1
20260902145642 82 272 0.0 2.0 0.00 0.00 0.00 59 1013.1
20260902145135 82 295 0.0 2.0 0.00 0.00 0.00 58 1013.1
20260902144859 83 338 0.0 0.0 0.00 0.00 0.00 58 1013.1
20260902144615 82 340 0.0 0.0 0.00 0.00 0.00 59 1013.3
20260902144416 82 340 0.0 0.0 0.00 0.00 0.00 59 1013.3
20260902143638 81 338 0.0 0.0 0.00 0.00 0.00 64 1013.1
20260902143138 81 0 0.0 0.0 0.00 0.00 0.00 64 1013.1
20260902142638 80 0 0.0 0.0 0.00 0.00 0.00 66 1013.1
20260902142405 79 0 0.0 0.0 0.00 0.00 0.00 67 1013.0
20260902142136 79 0 0.0 0.0 0.00 0.00 0.00 70 1013.0
20260902141355 78 0 0.0 0.0 0.00 0.00 0.00 72 1013.0
20260902141120 77 0 0.0 0.0 0.00 0.00 0.00 72 1012.9
20260902140643 77 0 0.0 0.0 0.00 0.00 0.00 72 1012.9
20260902140628 76 0 0.0 0.0 0.00 0.00 0.00 74 1012.9
20260902135637 76 0 0.0 0.0 0.00 0.00 0.00 77 1012.8
20260902135137 75 0 0.0 0.0 0.00 0.00 0.00 76 1012.7
20260902134637 75 0 0.0 0.0 0.00 0.00 0.00 76 1012.6
20260902134137 74 0 0.0 0.0 0.00 0.00 0.00 76 1012.6
20260902133637 74 1 0.0 0.0 0.00 0.00 0.00 76 1012.6
20260902133355 73 0 0.0 0.0 0.00 0.00 0.00 76 1012.4
20260902132632 73 38 0.0 0.0 0.00 0.00 0.00 77 1012.5
20260902132136 73 41 0.0 0.0 0.00 0.00 0.00 75 1012.4
20260902131636 74 41 0.0 0.0 0.00 0.00 0.00 73 1012.4
20260902131136 74 41 0.0 0.0 0.00 0.00 0.00 72 1012.3
20260902130636 74 41 0.0 0.0 0.00 0.00 0.00 71 1012.3
20260902130136 74 39 0.0 0.0 0.00 0.00 0.00 70 1012.3
20260902125635 75 41 0.0 0.0 0.00 0.00 0.00 69 1012.3
20260902125136 75 48 0.0 0.0 0.00 0.00 0.00 69 1012.3
20260902124854 75 47 0.0 0.0 0.00 0.00 0.00 68 1012.4
20260902124131 75 66 0.0 1.0 0.00 0.00 0.00 68 1012.2
20260902123853 75 52 0.0 1.0 0.00 0.00 0.00 67 1012.1
20260902123135 74 54 0.0 0.0 0.00 0.00 0.00 68 1012.2
20260902122636 75 27 0.0 1.0 0.00 0.00 0.00 68 1012.2
20260902122135 75 39 0.0 3.0 0.00 0.00 0.00 68 1012.2
20260902121635 74 41 0.0 3.0 0.00 0.00 0.00 68 1012.1
20260902121358 74 44 1.0 3.0 0.00 0.00 0.00 68 1012.1
20260902120635 74 42 0.0 3.0 0.00 0.00 0.00 68 1012.1
20260902120131 74 39 0.0 1.0 0.00 0.00 0.00 67 1012.1
20260902115634 74 31 0.0 1.0 0.00 0.00 0.00 67 1012.1
20260902115135 74 48 0.0 0.0 0.00 0.00 0.00 68 1012.1
20260902114951 73 48 0.0 0.0 0.00 0.00 0.00 69 1012.1
20260902114834 73 28 0.0 0.0 0.00 0.00 0.00 71 1012.2
20260902113634 73 28 0.0 0.0 0.00 0.00 0.00 71 1012.1
20260902113353 72 28 0.0 0.0 0.00 0.00 0.00 72 1012.1
20260902112634 72 102 0.0 0.0 0.00 0.00 0.00 73 1012.1
20260902112133 72 102 0.0 0.0 0.00 0.00 0.00 74 1012.1
20260902111633 73 102 0.0 0.0 0.00 0.00 0.00 72 1012.1
20260902111133 73 102 0.0 0.0 0.00 0.00 0.00 72 1012.1
20260902110633 73 102 0.0 0.0 0.00 0.00 0.00 71 1012.1
20260902110133 74 102 0.0 0.0 0.00 0.00 0.00 72 1012.1
20260902105633 74 102 0.0 0.0 0.00 0.00 0.00 70 1012.1
20260902105133 74 102 0.0 0.0 0.00 0.00 0.00 69 1012.1
20260902104633 75 102 0.0 0.0 0.00 0.00 0.00 69 1012.2
20260902104349 75 110 0.0 0.0 0.00 0.00 0.00 68 1012.1
20260902103629 75 111 0.0 0.0 0.00 0.00 0.00 68 1012.1
20260902103132 76 116 0.0 0.0 0.00 0.00 0.00 67 1012.1
20260902102632 76 104 0.0 1.0 0.00 0.00 0.00 65 1012.2
20260902102132 76 103 0.0 2.0 0.00 0.00 0.00 65 1012.2
20260902101632 76 90 0.0 4.0 0.00 0.00 0.00 63 1012.2
20260902101132 76 99 0.0 4.0 0.00 0.00 0.00 63 1012.2
20260902100631 76 83 0.0 3.0 0.00 0.00 0.00 62 1012.2
20260902100131 76 109 0.0 3.0 0.00 0.00 0.00 64 1012.1
20260902095627 76 90 0.0 1.0 0.00 0.00 0.00 63 1012.0
20260902095128 76 75 0.0 0.0 0.00 0.00 0.00 63 1012.0
20260902094631 76 58 0.0 0.0 0.00 0.00 0.00 63 1012.0
20260902094131 76 87 0.0 3.0 0.00 0.00 0.00 64 1012.1
20260902093855 76 49 0.0 3.0 0.00 0.00 0.00 65 1012.1
20260902093131 76 32 0.0 3.0 0.00 0.00 0.00 66 1012.1
20260902092632 76 39 0.0 0.0 0.00 0.00 0.00 67 1012.1
20260902092131 76 39 0.0 0.0 0.00 0.00 0.00 66 1012.2
20260902091631 76 39 0.0 1.0 0.00 0.00 0.00 65 1012.2
20260902091131 75 41 0.0 1.0 0.00 0.00 0.00 66 1012.1
20260902090851 74 357 0.0 0.0 0.00 0.00 0.00 67 1012.1
20260902090130 75 357 0.0 0.0 0.00 0.00 0.00 65 1012.1
20260902085630 76 85 0.0 0.0 0.00 0.00 0.00 63 1012.1
20260902085130 76 85 0.0 0.0 0.00 0.00 0.00 62 1012.0
20260902084630 77 85 0.0 0.0 0.00 0.00 0.00 62 1012.0
20260902084129 77 85 0.0 0.0 0.00 0.00 0.00 61 1011.8
20260902083630 77 85 0.0 0.0 0.00 0.00 0.00 59 1011.8
20260902083126 78 85 0.0 3.0 0.00 0.00 0.00 58 1011.8
20260902082625 78 85 0.0 3.0 0.00 0.00 0.00 58 1011.8
20260902082129 78 38 0.0 3.0 0.00 0.00 0.00 59 1011.7
20260902081629 78 49 1.0 4.0 0.00 0.00 0.00 59 1011.7
20260902081129 78 37 1.0 4.0 0.00 0.00 0.00 60 1011.7
20260902080839 78 21 0.0 0.0 0.00 0.00 0.00 59 1011.7
20260902080719 78 37 0.0 1.0 0.00 0.00 0.00 59 1011.7
20260902075631 78 30 0.0 1.0 0.00 0.00 0.00 59 1011.8
20260902075353 78 39 0.0 1.0 0.00 0.00 0.00 58 1011.7
20260902074628 78 51 0.0 1.0 0.00 0.00 0.00 59 1011.7
20260902074608 78 35 0.0 3.0 0.00 0.00 0.00 60 1011.7
20260902073628 78 41 0.0 3.0 0.00 0.00 0.00 61 1011.7
20260902073131 78 45 0.0 3.0 0.00 0.00 0.00 62 1011.8
20260902072631 78 39 0.0 3.0 0.00 0.00 0.00 64 1011.7
20260902072128 78 32 1.0 3.0 0.00 0.00 0.00 63 1011.8
20260902071628 78 28 0.0 1.0 0.00 0.00 0.00 64 1011.8
20260902071127 78 21 0.0 1.0 0.00 0.00 0.00 64 1011.7
20260902070628 77 16 0.0 0.0 0.00 0.00 0.00 64 1011.8
20260902070124 77 52 0.0 0.0 0.00 0.00 0.00 65 1011.8
20260902065624 77 87 0.0 0.0 0.00 0.00 0.00 65 1011.7
20260902065127 77 87 0.0 0.0 0.00 0.00 0.00 64 1011.7
20260902064627 78 87 0.0 0.0 0.00 0.00 0.00 64 1011.7
20260902064127 78 87 0.0 0.0 0.00 0.00 0.00 63 1011.6
20260902063627 79 87 0.0 0.0 0.00 0.00 0.00 62 1011.7
20260902063127 79 87 0.0 1.0 0.00 0.00 0.00 61 1011.6
20260902062843 79 79 0.0 1.0 0.00 0.00 0.00 60 1011.6
20260902062123 79 100 0.0 1.0 0.00 0.00 0.00 61 1011.6
20260902062106 79 49 0.0 0.0 0.00 0.00 0.00 62 1011.5
20260902061123 79 49 0.0 1.0 0.00 0.00 0.00 61 1011.5
20260902060626 79 47 0.0 1.0 0.00 0.00 0.00 62 1011.5
20260902060126 79 45 0.0 0.0 0.00 0.00 0.00 62 1011.6
20260902055626 79 55 0.0 2.0 0.00 0.00 0.00 62 1011.6
20260902055126 79 55 0.0 2.0 0.00 0.00 0.00 63 1011.6
20260902054621 79 52 0.0 2.0 0.00 0.00 0.00 63 1011.7
20260902054342 78 47 0.0 1.0 0.00 0.00 0.00 65 1011.7
20260902053623 78 48 0.0 0.0 0.00 0.00 0.00 66 1011.7
20260902053122 77 48 0.0 0.0 0.00 0.00 0.00 67 1011.7
20260902052626 78 48 0.0 0.0 0.00 0.00 0.00 67 1011.7
20260902052125 78 48 0.0 0.0 0.00 0.00 0.00 67 1011.7
20260902051625 77 48 0.0 0.0 0.00 0.00 0.00 67 1011.8
20260902051124 78 48 0.0 0.0 0.00 0.00 0.00 67 1012.0
20260902050625 78 48 0.0 0.0 0.00 0.00 0.00 67 1011.8
20260902050121 78 48 0.0 0.0 0.00 0.00 0.00 65 1011.8
20260902045845 78 48 0.0 0.0 0.00 0.00 0.00 66 1011.8
20260902045121 79 48 0.0 0.0 0.00 0.00 0.00 64 1011.8
20260902044621 79 48 0.0 0.0 0.00 0.00 0.00 63 1011.8
20260902044124 79 48 0.0 0.0 0.00 0.00 0.00 62 1011.7
20260902043624 80 48 0.0 0.0 0.00 0.00 0.00 62 1011.6
20260902043124 81 48 0.0 0.0 0.00 0.00 0.00 59 1011.6
20260902042624 81 48 0.0 0.0 0.00 0.00 0.00 58 1011.6
20260902042124 81 48 0.0 0.0 0.00 0.00 0.00 58 1011.5
20260902041623 81 48 0.0 0.0 0.00 0.00 0.00 59 1011.5
20260902041611 81 48 0.0 0.0 0.00 0.00 0.00 59 1011.5
20260902040623 81 48 0.0 0.0 0.00 0.00 0.00 58 1011.4
20260902040120 81 49 0.0 0.0 0.00 0.00 0.00 58 1011.4
20260902035623 81 30 0.0 0.0 0.00 0.00 0.00 59 1011.4
20260902035123 81 30 0.0 0.0 0.00 0.00 0.00 58 1011.4
20260902034624 81 75 0.0 0.0 0.00 0.00 0.00 59 1011.2
20260902034123 82 75 0.0 0.0 0.00 0.00 0.00 58 1011.1
20260902033622 82 76 0.0 0.0 0.00 0.00 0.00 57 1011.0
20260902033123 82 34 0.0 0.0 0.00 0.00 0.00 57 1010.9
20260902032619 82 34 0.0 0.0 0.00 0.00 0.00 57 1010.8
20260902032119 83 34 0.0 0.0 0.00 0.00 0.00 56 1010.5
20260902031622 83 34 0.0 0.0 0.00 0.00 0.00 54 1010.5
20260902031122 83 34 0.0 0.0 0.00 0.00 0.00 53 1010.3
20260902030621 83 286 0.0 0.0 0.00 0.00 0.00 52 1010.3
20260902030122 84 286 0.0 0.0 0.00 0.00 0.00 50 1010.2
20260902025850 84 286 0.0 1.0 0.00 0.00 0.00 49 1010.1
20260902024849 84 309 0.0 1.0 0.00 0.00 0.00 49 1009.9
20260902024124 84 313 0.0 0.0 0.00 0.00 0.00 49 1009.8
20260902023621 85 314 0.0 0.0 0.00 0.00 0.00 48 1009.7
20260902023122 85 282 0.0 0.0 0.00 0.00 0.00 48 1009.7
20260902022621 85 281 0.0 3.0 0.00 0.00 0.00 47 1009.8
20260902022121 85 252 0.0 3.0 0.00 0.00 0.00 46 1009.6
20260902021621 85 278 0.0 3.0 0.00 0.00 0.00 47 1009.5
20260902021120 86 282 0.0 5.0 0.00 0.00 0.00 47 1009.4
20260902021108 86 299 0.0 5.0 0.00 0.00 0.00 46 1009.2
20260902020121 86 266 0.0 6.0 0.00 0.00 0.00 47 1009.2
20260902015617 86 255 0.0 9.0 0.00 0.00 0.00 46 1009.2
20260902015118 87 283 2.0 9.0 0.00 0.00 0.00 46 1009.1
20260902014620 87 316 2.0 6.0 0.00 0.00 0.00 46 1009.1
20260902014340 87 252 2.0 6.0 0.00 0.00 0.00 45 1009.1
20260902013620 88 251 1.0 5.0 0.00 0.00 0.00 45 1009.1
20260902013120 88 248 0.0 4.0 0.00 0.00 0.00 45 1009.0
20260902012620 89 290 0.0 5.0 0.00 0.00 0.00 45 1009.1
20260902012116 89 288 0.0 5.0 0.00 0.00 0.00 44 1009.0
20260902011616 89 258 1.0 5.0 0.00 0.00 0.00 44 1009.0
20260902011116 89 296 0.0 7.0 0.00 0.00 0.00 44 1009.0
20260902010619 89 257 2.0 7.0 0.00 0.00 0.00 44 1009.0
20260902010120 89 271 2.0 7.0 0.00 0.00 0.00 44 1008.9
20260902005845 90 299 2.0 7.0 0.00 0.00 0.00 44 1008.9
20260902005119 90 289 3.0 9.0 0.00 0.00 0.00 44 1008.9
20260902004619 90 276 3.0 9.0 0.00 0.00 0.00 44 1008.9
20260902004340 90 307 3.0 9.0 0.00 0.00 0.00 44 1009.0
20260902003618 90 305 2.0 11.0 0.00 0.00 0.00 43 1009.0
20260902003119 90 244 4.0 11.0 0.00 0.00 0.00 43 1009.0
20260902002617 90 285 5.0 11.0 0.00 0.00 0.00 43 1009.1
20260902002118 91 250 5.0 10.0 0.00 0.00 0.00 42 1009.1
20260902001619 91 244 5.0 10.0 0.00 0.00 0.00 43 1009.1
20260902001118 91 251 4.0 11.0 0.00 0.00 0.00 43 1009.1
20260902000618 91 247 3.0 11.0 0.00 0.00 0.00 43 1009.1
20260902000117 91 278 4.0 12.0 0.00 0.00 0.00 42 1009.2
20260901235617 91 295 6.0 12.0 0.00 0.00 0.00 42 1009.2
20260901235114 92 257 5.0 12.0 0.00 0.00 0.00 42 1009.2
20260901234615 91 257 4.0 13.0 0.00 0.00 0.00 41 1009.4
20260901234329 92 278 5.0 13.0 0.00 0.00 0.00 41 1009.5
20260901234216 92 286 4.0 13.0 0.00 0.00 0.00 41 1009.4
20260901233558 91 268 5.0 11.0 0.00 0.00 0.00 41 1009.6
20260901232617 92 278 4.0 11.0 0.00 0.00 0.00 40 1009.6
20260901232336 92 275 4.0 11.0 0.00 0.00 0.00 40 1009.7
20260901231617 92 320 4.0 11.0 0.00 0.00 0.00 40 1009.7
20260901231608 93 216 3.0 10.0 0.00 0.00 0.00 39 1009.7
20260901230617 92 212 2.0 10.0 0.00 0.00 0.00 40 1009.7
20260901230116 92 234 3.0 10.0 0.00 0.00 0.00 40 1009.7
20260901225617 92 252 4.0 10.0 0.00 0.00 0.00 39 1009.8
20260901225117 93 271 2.0 6.0 0.00 0.00 0.00 39 1009.8
20260901224616 92 259 3.0 9.0 0.00 0.00 0.00 39 1009.9
20260901224116 92 250 4.0 11.0 0.00 0.00 0.00 39 1009.9
20260901223615 92 268 3.0 11.0 0.00 0.00 0.00 40 1010.0
20260901223116 92 333 5.0 9.0 0.00 0.00 0.00 40 1010.0
20260901222616 92 265 4.0 9.0 0.00 0.00 0.00 40 1010.0
20260901222115 92 313 6.0 9.0 0.00 0.00 0.00 39 1010.2
20260901221615 92 251 3.0 9.0 0.00 0.00 0.00 38 1010.2
20260901221115 93 241 2.0 9.0 0.00 0.00 0.00 38 1010.2
20260901220615 92 207 1.0 11.0 0.00 0.00 0.00 38 1010.3
20260901220116 91 317 5.0 11.0 0.00 0.00 0.00 39 1010.3
20260901215839 91 269 3.0 11.0 0.00 0.00 0.00 40 1010.4
20260901215115 91 292 4.0 10.0 0.00 0.00 0.00 39 1010.4
20260901214611 91 266 5.0 10.0 0.00 0.00 0.00 39 1010.5
20260901214111 91 231 4.0 9.0 0.00 0.00 0.00 41 1010.7
20260901213612 91 298 5.0 9.0 0.00 0.00 0.00 39 1010.7
20260901213114 92 289 2.0 9.0 0.00 0.00 0.00 38 1010.8
20260901212837 92 257 5.0 9.0 0.00 0.00 0.00 39 1010.9
20260901212114 92 224 4.0 7.0 0.00 0.00 0.00 39 1010.9
20260901211614 92 271 3.0 7.0 0.00 0.00 0.00 40 1011.1
20260901211110 92 257 4.0 9.0 0.00 0.00 0.00 40 1011.1
20260901210610 91 244 3.0 9.0 0.00 0.01 0.00 41 1011.1
20260901210110 91 228 0.0 11.0 0.00 0.01 0.00 42 1011.1
20260901205610 91 268 5.0 11.0 0.00 0.02 0.00 41 1011.2
20260901205341 92 258 4.0 7.0 0.00 0.02 0.00 40 1011.3
20260901204613 93 286 2.0 5.0 0.00 0.02 0.00 40 1011.4
20260901204113 93 152 1.0 6.0 0.00 0.03 0.00 37 1011.5
20260901203832 92 140 3.0 7.0 0.00 0.03 0.00 38 1011.6
20260901203334 92 199 1.0 7.0 0.00 0.03 0.00 39 1011.7
20260901202613 92 276 3.0 7.0 0.00 0.04 0.00 39 1011.7
20260901202112 92 210 0.0 5.0 0.00 0.04 0.00 39 1011.7
20260901201832 91 247 0.0 5.0 0.00 0.05 0.00 42 1011.8
20260901201334 91 238 0.0 5.0 0.00 0.07 0.00 39 1012.0
20260901200613 90 161 0.0 6.0 0.00 0.09 0.00 40 1012.0
20260901200112 89 309 3.0 6.0 0.00 0.10 0.00 41 1012.0
20260901195612 89 259 2.0 6.0 0.00 0.12 0.00 42 1012.0
20260901195112 89 275 4.0 6.0 0.00 0.13 0.00 42 1012.0
20260901194616 89 68 3.0 7.0 0.00 0.14 0.00 40 1012.1
20260901194112 89 274 1.0 7.0 0.00 0.15 0.00 40 1012.2
20260901193611 90 226 2.0 6.0 0.00 0.16 0.00 42 1012.3
20260901193111 90 285 0.0 5.0 0.00 0.16 0.00 42 1012.4
20260901192612 90 298 0.0 5.0 0.00 0.17 0.00 39 1012.4
20260901192334 90 338 2.0 5.0 0.00 0.19 0.00 41 1012.5
20260901191611 89 30 0.0 3.0 0.00 0.21 0.00 40 1012.5
20260901191111 89 307 0.0 6.0 0.00 0.22 0.00 39 1012.5
20260901190611 89 240 3.0 6.0 0.00 0.23 0.00 41 1012.6
20260901190111 91 303 2.0 6.0 0.00 0.26 0.00 40 1012.6
20260901190100 90 245 0.0 6.0 0.00 0.36 0.00 41 1012.7
20260901185110 90 230 2.0 6.0 0.00 0.38 0.00 40 1012.7
20260901184611 89 285 0.0 4.0 0.00 0.39 0.00 42 1012.7
20260901184111 88 340 0.0 3.0 0.00 0.40 0.00 42 1012.7
20260901183611 89 17 1.0 4.0 0.00 0.41 0.00 42 1012.8
20260901183111 90 243 1.0 4.0 0.00 0.45 0.00 40 1012.9
20260901182610 90 176 1.0 4.0 0.00 0.45 0.00 40 1012.9
20260901182332 89 138 1.0 4.0 0.00 0.45 0.00 41 1012.9
20260901181610 88 182 2.0 5.0 0.00 0.45 0.00 43 1012.9
20260901181110 88 279 3.0 5.0 0.00 0.45 0.00 42 1012.9
20260901180611 89 223 1.0 5.0 0.00 0.45 0.00 41 1012.9
20260901180335 89 125 2.0 5.0 0.00 0.45 0.00 41 1013.0
20260901175830 89 178 0.0 5.0 0.00 0.45 0.00 43 1013.1
20260901175110 89 155 2.0 5.0 0.00 0.45 0.00 42 1013.1
20260901174831 88 200 2.0 5.0 0.00 0.45 0.00 44 1013.1
20260901174109 88 235 0.0 0.0 0.00 0.45 0.00 44 1013.1
20260901173609 86 305 0.0 1.0 0.00 0.45 0.00 46 1013.0
20260901173109 86 334 0.0 1.0 0.00 0.45 0.00 46 1013.3
20260901172609 86 20 0.0 4.0 0.00 0.45 0.00 45 1013.3
20260901172546 86 275 1.0 4.0 0.00 0.45 0.00 44 1013.1
20260901171608 86 293 1.0 3.0 0.00 0.45 0.00 44 1013.3
20260901171336 86 172 0.0 4.0 0.00 0.45 0.00 44 1013.3
20260901170608 87 288 1.0 4.0 0.00 0.45 0.00 44 1013.1
20260901170331 87 228 1.0 4.0 0.00 0.45 0.00 43 1013.1
20260901165608 87 213 2.0 4.0 0.00 0.45 0.00 42 1013.1
20260901165325 87 193 0.0 3.0 0.00 0.45 0.00 45 1013.1
20260901164607 86 151 0.0 3.0 0.00 0.45 0.00 47 1013.1
20260901164108 85 202 0.0 2.0 0.00 0.45 0.00 50 1013.1
20260901163607 85 268 0.0 2.0 0.00 0.45 0.00 50 1013.1
20260901163107 85 268 0.0 2.0 0.00 0.45 0.00 50 1013.1
20260901162608 85 183 0.0 0.0 0.00 0.45 0.00 51 1013.1
20260901162107 84 185 0.0 1.0 0.00 0.45 0.00 54 1013.1
20260901161608 83 117 0.0 1.0 0.00 0.45 0.00 54 1013.1
20260901161330 83 90 0.0 0.0 0.00 0.45 0.00 56 1013.1